Flag for Mongolia Weather past 2 weeks in Ulaanbaatar, Mongolia

36 °F


Feels Like: 27 °F
Forecast: 19 / 48 °F
Wind: 13 mph from Northwest

Location: Ulan-Bator

Current Time: Oct 9, 2015 at 9:34:10 AM

Latest Report: Oct 9, 2015 at 9:00 AM

Visibility: 10 mi

Pressure: 30.12 "Hg (25.64 "Hg at 1298m altitude)

Humidity: 48%

Dew point: 18 °F

Location of UlaanbaatarLocation

Historic Weather in Ulaanbaatar — Graph


Ulaanbaatar temperature yesterday

Maximum temperature yesterday: 37 °F (at 1:30 PM)
Minimum temperature yesterday: 18 °F (at 4:00 AM)
Average temperature yesterday: 30 °F

Past Weeks' High & Low Weather Summary

High68 °F (Oct 5, 4:00 PM)100% (Sep 30, 3:00 AM)30.36 "Hg (Sep 30, 3:00 AM)
Low18 °F (Oct 8, 4:00 AM)16% (Sep 28, 4:30 PM)29.71 "Hg (Oct 6, 3:30 PM)
Average39 °F62%30.03 "Hg
* Reported Sep 24 9:00 AM — Oct 9 8:30 AM, Ulaanbaatar, Weather by CustomWeather, © 2015

Note: Actual official high and low records may vary slightly from our data, if they occured in-between our weather recording intervals... More about our weather records


Ulaanbaatar weather history for previous 24 hours

Time TempWeatherWind HumidityBarometerVisibility
8:30 AM
Fri, Oct 9
36 °FSunny.13 mph44%30.09 "Hg10 mi
8:00 AM32 °FPassing clouds.13 mph55%30.09 "HgN/A
7:30 AM32 °FClear.17 mph60%30.09 "Hg10 mi
7:00 AM32 °FClear.15 mph55%30.09 "Hg10 mi
6:30 AM32 °FClear.17 mph55%30.09 "Hg10 mi
6:00 AM32 °FClear.15 mph55%30.09 "Hg10 mi
5:30 AM30 °FClear.13 mph69%30.09 "Hg10 mi
5:00 AM30 °FPassing clouds.10 mph69%30.09 "HgN/A
4:30 AM28 °FClear.6 mph69%30.09 "Hg10 mi
4:00 AM27 °FClear.1 mph74%30.09 "Hg10 mi
3:30 AM28 °FClear.No wind69%30.12 "Hg10 mi
3:00 AM27 °FClear.1 mph74%30.12 "Hg10 mi
2:30 AM23 °FClear.3 mph80%30.12 "Hg10 mi
2:00 AM27 °FClear.3 mph74%30.12 "Hg10 mi
1:30 AM28 °FClear.1 mph69%30.12 "Hg10 mi
1:00 AM27 °FClear.6 mph74%30.12 "Hg10 mi
12:30 AM27 °FClear.6 mph74%30.15 "Hg10 mi
12:00 AM23 °FClear.1 mph86%30.15 "Hg10 mi
11:30 PM
Thu, Oct 8
28 °FClear.1 mph69%30.15 "Hg10 mi
11:00 PM27 °FClear.1 mph74%30.15 "Hg10 mi
10:30 PM27 °FClear.1 mph80%30.18 "Hg10 mi
10:00 PM27 °FClear.1 mph80%30.18 "Hg10 mi
9:30 PM27 °FPassing clouds.3 mph74%30.18 "HgN/A
9:00 PM32 °FPassing clouds.No wind60%30.18 "HgN/A
8:30 PM34 °FPassing clouds.6 mph56%30.18 "HgN/A
8:00 PM34 °FPassing clouds.3 mph56%30.21 "HgN/A
7:30 PM34 °FPassing clouds.3 mph56%30.21 "HgN/A
7:00 PM36 °FScattered clouds.6 mph52%30.21 "HgN/A
6:30 PM36 °FScattered clouds.8 mph48%30.21 "HgN/A
6:00 PM36 °FScattered clouds.10 mph48%30.21 "HgN/A
5:30 PM37 °FPartly sunny.13 mph45%30.21 "HgN/A
5:00 PM37 °FPartly sunny.13 mph45%30.21 "HgN/A
4:30 PM37 °FPartly sunny.15 mph45%30.21 "HgN/A
4:00 PM37 °FPassing clouds.15 mph41%30.21 "HgN/A
3:30 PM37 °FSunny.15 mph41%30.21 "Hg10 mi
3:00 PM37 °FPassing clouds.15 mph41%30.21 "HgN/A
2:30 PM37 °FSunny.17 mph41%30.21 "Hg10 mi
2:00 PM37 °FPassing clouds.20 mph41%30.21 "HgN/A
1:30 PM37 °FPassing clouds.13 mph41%30.24 "HgN/A
1:00 PM36 °FPassing clouds.13 mph44%30.24 "HgN/A
12:30 PM36 °FPassing clouds.15 mph41%30.27 "HgN/A
12:00 PM36 °FPassing clouds.13 mph41%30.27 "HgN/A
11:30 AM34 °FPassing clouds.13 mph44%30.27 "HgN/A
11:00 AM34 °FPassing clouds.10 mph44%30.27 "HgN/A
10:30 AM34 °FPassing clouds.10 mph48%30.27 "HgN/A
10:00 AM32 °FPassing clouds.8 mph51%30.27 "HgN/A
9:30 AM30 °FSunny.No wind59%30.27 "Hg10 mi
9:00 AM30 °FSunny.No wind59%30.27 "Hg10 mi
Weather by CustomWeather, © 2015

See weather overviewHow to use our weather pages